[[{"header":{"parameterUnit":"m.s-1","parameterCategory":1,"la1":30.2991,"la2":30.254,"lo1":-89.0895,"lo2":-89.0444,"dy":0.0017,"dx":0.0017,"nx":28,"ny":28,"refTime":"2023-08-04T09:00:00:Z","depth":0,"parameterNumber":2,"parameterNumberName":"U-component_of_WINDS"},"data":[0,0,0,0,0,0,0,0,0,0,0,0,0,0,0,0,0,0,0,0,0,0,0,0,0,0,0,0,0,0,0,0,0,0,0,0,0,0,0,0,0,0,0,0,0,0,0,0,0,0,0,0,0,0,0,0,0,0,1.2623,1.2624,0,1.2674,1.2675,1.2675,1.2656,1.2654,1.2653,1.2652,1.2701,1.2703,1.2706,0,0,0,0,0,0,0,0,0,0,0,0,0,1.2505,1.2507,1.2623,1.2624,1.2624,1.2674,1.2675,1.2676,1.2656,1.2654,1.2653,1.2652,1.27,1.2703,1.2706,0,0,0,0,0,0,0,0,0,0,0,0,0,1.2556,1.2508,1.2623,1.2621,1.2621,1.2674,1.2675,1.2676,1.2656,1.2654,1.2652,1.2651,1.2699,1.2703,1.2706,1.2764,0,0,1.2717,1.2719,0,0,0,0,0,0,0,0,1.2553,1.256,1.262,1.2621,1.2621,1.2657,1.2651,1.2705,1.2656,1.2643,1.2652,1.265,1.2688,1.2692,1.2705,1.2766,1.2768,1.2718,1.272,1.2721,1.2722,0,0,0,0,0,0,0,1.255,1.2558,1.2643,1.2621,1.2622,1.2616,1.2621,1.2661,1.2674,1.2644,1.2642,1.2649,1.2687,1.2702,1.2706,1.2769,1.2718,1.2721,1.2723,1.2724,1.2879,1.2881,0,0,0,0,0,0,1.2546,1.2555,1.2641,1.2645,1.2582,1.2619,1.2625,1.2647,1.2674,1.2676,1.265,1.2648,1.2697,1.2702,1.2708,1.2777,1.2721,1.2725,1.2727,1.2877,1.288,1.2882,0,0,0,0,0,0,1.2544,1.2554,1.2639,1.26,1.261,1.2623,1.2648,1.2649,1.2663,1.2679,1.2681,1.2663,1.2695,1.2703,1.275,1.2778,1.2726,1.273,1.2875,1.2878,1.2881,1.2915,0,0,0,0,0,0,1.2541,1.2554,1.2576,1.26,1.2612,1.2682,1.265,1.2651,1.267,1.2667,1.2691,1.2693,1.2695,1.2745,1.2754,1.2782,1.2732,1.2873,1.2876,1.288,1.2911,1.2919,1.2925,0,0,0,0,0,1.2537,1.2583,1.2577,1.2588,1.2641,1.2684,1.269,1.2692,1.2673,1.2695,1.2705,1.2693,1.2774,1.275,1.276,1.279,1.2871,1.2875,1.288,1.2908,1.2917,1.2925,0,0,0,0,0,0,1.256,1.2586,1.258,1.2636,1.2658,1.268,1.2708,1.2701,1.2728,1.2724,1.2724,1.2729,1.2778,1.2789,1.2762,1.2847,1.2819,1.2826,1.2838,1.2846,1.2853,1.2849,1.2735,0,0,0,0,0,1.2572,1.2605,1.2626,1.2673,1.2685,1.2695,1.2713,1.2713,1.2735,1.2744,1.2757,1.2778,1.2808,1.2828,1.2857,1.2913,1.2918,1.2938,1.2945,1.2951,1.2956,1.2986,1.2995,1.2896,1.2896,1.2896,0,0,1.2596,1.2615,1.2635,1.2678,1.2695,1.2729,1.2703,1.2739,1.2764,1.2749,1.2794,1.2805,1.2829,1.2881,1.2904,1.2891,1.2985,1.2956,1.2961,1.2963,1.2992,1.3001,1.3009,1.2899,1.2899,1.2898,0,0,1.2658,1.2676,1.2717,1.2735,1.2761,1.2768,1.2778,1.2802,1.2809,1.2855,1.2845,1.2873,1.2926,1.2943,1.2958,1.3028,1.3017,1.3037,1.3072,1.3101,1.3109,1.3116,1.314,1.3149,1.3042,1.3043,1.3043,0,1.2684,1.2735,1.2738,1.2776,1.2795,1.2785,1.2826,1.2843,1.2877,1.289,1.2875,1.2941,1.2956,1.3012,1.3029,1.3042,1.3053,1.3034,1.3108,1.3115,1.3121,1.3144,1.3153,1.3045,1.3045,1.3044,1.3044,0,1.2766,1.2802,1.2832,1.2867,1.2889,1.2929,1.2937,1.2959,1.2957,1.2965,1.3012,1.303,1.3062,1.3076,1.3073,1.3131,1.3122,1.3108,1.308,1.3133,1.3154,1.3163,1.3048,1.3047,1.3046,1.3046,0,0,1.2842,1.2879,1.289,1.2906,1.2935,1.2962,1.3001,1.3034,1.3053,1.3077,1.3109,1.3154,1.3141,1.3159,1.3158,1.3185,1.3237,1.3167,1.3167,1.3178,1.3301,1.3311,1.3321,1.3231,1.3233,1.3234,1.3299,0,1.2905,1.2974,1.2979,1.3041,1.3074,1.3066,1.3099,1.312,1.3129,1.3157,1.3167,1.3198,1.318,1.319,1.3216,1.3226,1.3262,1.3221,1.326,1.3261,1.3253,1.3333,1.3343,1.3403,1.3308,1.3309,1.331,0,1.2987,1.3016,1.3082,1.3107,1.3121,1.3151,1.3182,1.321,1.3233,1.3238,1.3258,1.3255,1.3293,1.3266,1.3319,1.3291,1.3307,1.3314,1.3317,1.3319,1.3288,1.3336,1.3422,1.3431,1.3323,1.3322,1.3321,0,1.3035,1.3089,1.3136,1.315,1.3181,1.3202,1.3216,1.3238,1.3258,1.3284,1.3297,1.3327,1.3343,1.3367,1.3371,1.335,1.3424,1.3396,1.3427,1.3427,1.3442,1.344,1.3531,1.3454,1.3454,1.3454,1.3454,0,1.3104,1.3144,1.3158,1.3186,1.3232,1.3236,1.328,1.3292,1.3312,1.3342,1.3337,1.3364,1.3369,1.3398,1.3401,1.3444,1.3452,1.3456,1.3456,1.3456,1.3455,1.3465,1.346,1.3456,1.3456,1.3455,1.3455,0,1.3163,1.3175,1.3225,1.3251,1.3258,1.329,1.3312,1.3339,1.3348,1.3385,1.3394,1.3408,1.3442,1.3449,1.3488,1.3491,1.3541,1.3538,1.3534,1.3533,1.3563,1.356,1.3662,1.3675,1.3591,1.3592,1.3593,0,1.3206,1.3237,1.3267,1.3288,1.3303,1.3336,1.3356,1.3362,1.3384,1.3414,1.3437,1.347,1.3497,1.3551,1.3563,1.3594,1.359,1.3624,1.3594,1.3593,1.3589,1.3587,1.359,1.3629,1.363,1.3631,1.3631,0,1.328,1.3284,1.3315,1.3348,1.3374,1.3399,1.3424,1.3441,1.345,1.3474,1.3509,1.353,1.3572,1.3604,1.3635,1.3647,1.3641,1.3641,1.3649,1.3649,1.3644,1.3646,1.3548,1.3638,1.3637,1.3637,1.3636,1.3636,1.3332,1.3359,1.3385,1.3419,1.3439,1.3463,1.3489,1.3503,1.3533,1.3567,1.3569,1.3607,1.363,1.3671,1.3685,1.3714,1.3704,1.3716,1.3719,1.3722,1.3724,1.3641,1.372,1.372,1.372,1.372,1.3719,0,1.3404,1.3421,1.3453,1.3489,1.3516,1.351,1.3537,1.3559,1.3593,1.3616,1.3644,1.3684,1.3716,1.3732,1.3763,1.3784,1.3781,1.3792,1.3789,1.3792,1.3733,1.3722,1.3793,1.3793,1.3793,1.3793,1.3793,1.3793,1.3445,1.3492,1.35,1.3555,1.3571,1.361,1.3626,1.3647,1.3666,1.3712,1.3739,1.375,1.377,1.3803,1.3832,1.3835,1.3847,1.3858,1.386,1.3804,1.3797,1.3789,1.3779,1.3861,1.3861,1.3918,1.3918,1.3918]},{"header":{"parameterUnit":"m.s-1","parameterCategory":1,"la1":30.2991,"la2":30.254,"lo1":-89.0895,"lo2":-89.0444,"dy":0.0017,"dx":0.0017,"nx":28,"ny":28,"refTime":"2023-08-04T09:00:00:Z","depth":0,"parameterNumber":3,"parameterNumberName":"V-component_of_WINDS"},"data":[0,0,0,0,0,0,0,0,0,0,0,0,0,0,0,0,0,0,0,0,0,0,0,0,0,0,0,0,0,0,0,0,0,0,0,0,0,0,0,0,0,0,0,0,0,0,0,0,0,0,0,0,0,0,0,0,0,0,6.4754,6.4754,0,6.4788,6.4788,6.4789,6.4729,6.4727,6.4725,6.4723,6.4753,6.4756,6.4758,0,0,0,0,0,0,0,0,0,0,0,0,0,6.4633,6.4636,6.4754,6.4754,6.4755,6.4788,6.4788,6.4789,6.473,6.4727,6.4725,6.4722,6.4752,6.4755,6.4759,0,0,0,0,0,0,0,0,0,0,0,0,0,6.4678,6.4637,6.4754,6.4729,6.4728,6.4788,6.4788,6.4789,6.473,6.4727,6.4724,6.4721,6.4751,6.4755,6.4759,6.4843,0,0,6.4771,6.4773,0,0,0,0,0,0,0,0,6.4676,6.4683,6.4733,6.4731,6.4729,6.4751,6.4757,6.4807,6.4731,6.4729,6.4723,6.472,6.4755,6.4758,6.4771,6.4845,6.4846,6.4772,6.4774,6.4776,6.4777,0,0,0,0,0,0,0,6.4673,6.4681,6.4767,6.4733,6.4731,6.4715,6.4718,6.4766,6.4758,6.4729,6.4725,6.473,6.4753,6.4767,6.4771,6.4846,6.4771,6.4775,6.4777,6.4779,6.499,6.4994,0,0,0,0,0,0,6.4673,6.4679,6.4766,6.4768,6.4695,6.472,6.4723,6.4747,6.4757,6.4756,6.4732,6.4727,6.4762,6.4767,6.4772,6.4871,6.4776,6.4779,6.4782,6.4987,6.4991,6.4995,0,0,0,0,0,0,6.4671,6.4682,6.4765,6.4722,6.4732,6.4725,6.4752,6.4749,6.4763,6.476,6.4758,6.4748,6.476,6.4766,6.4826,6.4871,6.4781,6.4785,6.4983,6.4988,6.4993,6.507,0,0,0,0,0,0,6.4668,6.4681,6.4714,6.4724,6.4734,6.482,6.4755,6.4752,6.4771,6.4764,6.4775,6.4773,6.4758,6.4821,6.483,6.4875,6.4788,6.4979,6.4986,6.4991,6.5063,6.5077,6.5088,0,0,0,0,0,6.4664,6.4733,6.4716,6.4727,6.4776,6.4823,6.4828,6.4811,6.4775,6.4807,6.4805,6.4773,6.4865,6.4827,6.4838,6.4884,6.4976,6.4984,6.4991,6.5057,6.5074,6.5088,0,0,0,0,0,0,6.4727,6.4734,6.4715,6.479,6.4807,6.4813,6.4853,6.4829,6.4854,6.4847,6.4822,6.4825,6.489,6.4893,6.4851,6.4966,6.4914,6.4924,6.4962,6.4977,6.4989,6.4987,6.4791,0,0,0,0,0,6.475,6.479,6.4793,6.4859,6.4868,6.486,6.4879,6.4864,6.488,6.4886,6.4888,6.4902,6.4934,6.4956,6.4985,6.5064,6.5064,6.5101,6.5113,6.5124,6.5132,6.5173,6.5189,6.5019,6.5019,6.5018,0,0,6.4797,6.4806,6.4832,6.4872,6.4883,6.4923,6.4865,6.491,6.4939,6.4892,6.4949,6.4951,6.4966,6.5035,6.5066,6.504,6.5179,6.5133,6.5141,6.5144,6.5182,6.5198,6.5213,6.5024,6.5023,6.5022,0,0,6.4904,6.4915,6.4972,6.4984,6.5002,6.4996,6.501,6.502,6.502,6.5077,6.5043,6.5076,6.5132,6.5144,6.5158,6.527,6.5241,6.528,6.5345,6.5386,6.5399,6.5411,6.545,6.5465,6.5289,6.5289,6.5289,0,6.496,6.5021,6.5003,6.505,6.5068,6.503,6.5086,6.5098,6.5124,6.5137,6.5108,6.5178,6.5185,6.5257,6.5284,6.5297,6.531,6.5279,6.5399,6.5411,6.5421,6.5458,6.5473,6.5294,6.5293,6.5293,6.5292,0,6.5088,6.5131,6.5174,6.5202,6.5225,6.5276,6.5265,6.529,6.5274,6.527,6.5329,6.5336,6.5366,6.5382,6.5366,6.5452,6.5435,6.5403,6.5351,6.5442,6.5477,6.5491,6.53,6.5299,6.5297,6.5296,0,0,6.5235,6.5254,6.527,6.5282,6.53,6.5331,6.5381,6.5412,6.5434,6.5453,6.5493,6.5542,6.5513,6.5528,6.5513,6.5548,6.5636,6.5512,6.5512,6.5534,6.5731,6.5754,6.5771,6.5618,6.5621,6.5623,6.5729,0,6.534,6.5427,6.5413,6.5497,6.5535,6.55,6.5542,6.5557,6.5556,6.5587,6.5584,6.5619,6.5578,6.5587,6.5621,6.5619,6.5675,6.5611,6.5653,6.5655,6.565,6.5789,6.5814,6.5914,6.5743,6.5745,6.5747,0,6.5475,6.5502,6.559,6.5602,6.5617,6.5656,6.5684,6.5715,6.573,6.5726,6.5745,6.5723,6.5771,6.5719,6.5783,6.574,6.5756,6.5758,6.5762,6.5764,6.5706,6.5795,6.5946,6.596,6.5768,6.5766,6.5765,0,6.5572,6.563,6.569,6.5702,6.5718,6.5746,6.5753,6.5766,6.5786,6.581,6.5822,6.5851,6.5866,6.5888,6.5874,6.5838,6.5941,6.5888,6.5938,6.5939,6.5961,6.5959,6.6116,6.5973,6.5973,6.5973,6.5973,0,6.5691,6.5746,6.5734,6.5771,6.5831,6.5814,6.5874,6.5877,6.5889,6.5924,6.5895,6.5929,6.5909,6.5941,6.593,6.5985,6.5992,6.599,6.5986,6.5992,6.5992,6.6002,6.5994,6.5977,6.5976,6.5975,6.5974,0,6.581,6.5804,6.5867,6.5878,6.5881,6.5925,6.5933,6.5967,6.5964,6.6009,6.6019,6.6013,6.6049,6.6038,6.6076,6.6069,6.6139,6.6127,6.6134,6.6131,6.6181,6.6177,6.6348,6.637,6.6215,6.6216,6.6217,0,6.5886,6.5927,6.5943,6.5966,6.5976,6.6013,6.6034,6.6018,6.6041,6.6062,6.6093,6.6127,6.6154,6.6213,6.6211,6.624,6.6228,6.6286,6.6232,6.6236,6.6228,6.6225,6.6229,6.6296,6.6298,6.63,6.6301,0,6.6021,6.6016,6.6048,6.608,6.6106,6.6129,6.615,6.617,6.6155,6.6182,6.622,6.624,6.628,6.6314,6.6341,6.6347,6.6321,6.6318,6.6331,6.6337,6.634,6.6338,6.6163,6.6314,6.6313,6.6312,6.6311,6.6311,6.6119,6.6155,6.6172,6.6209,6.6223,6.6243,6.6276,6.6277,6.6309,6.6341,6.633,6.6373,6.6387,6.6421,6.643,6.6463,6.644,6.6459,6.6464,6.6468,6.6475,6.6336,6.6468,6.6467,6.6467,6.6466,6.6466,0,6.6252,6.6262,6.6296,6.6327,6.6356,6.6332,6.6353,6.6378,6.6417,6.6433,6.646,6.6503,6.6536,6.6538,6.6568,6.6593,6.6582,6.6602,6.6599,6.6601,6.6493,6.6479,6.661,6.661,6.661,6.661,6.661,6.661,6.6325,6.6384,6.6382,6.6447,6.6455,6.6499,6.6513,6.6531,6.6544,6.6594,6.6622,6.6624,6.6634,6.6665,6.6693,6.6693,6.6705,6.6728,6.6723,6.6623,6.6608,6.6595,6.6581,6.6731,6.6731,6.6828,6.6829,6.6829]}]]